Regional Weather Roundup
Issued by NWS

Home | Current Version | Previous Version | Graphics & Text | Print | Product List | Glossary Off
Versions: 1 2 3 4 5 6 7 8 9 10 11 12 13 14 15 16 17 18 19 20 21 22 23 24 25 26 27 28 29 30 31 32 33 34 35 36 37 38 39 40 41 42 43 44 45 46 47 48 49 50

000
ASUS43 KMKX 231200
RWRWI

WISCONSIN REGIONAL WEATHER ROUNDUP
NATIONAL WEATHER SERVICE MILWAUKEE/SULLIVAN WI
700 AM CDT MON OCT 23 2017

NOTE: "FAIR" INDICATES FEW OR NO CLOUDS BELOW 12,000 FEET WITH NO
SIGNIFICANT WEATHER AND/OR OBSTRUCTIONS TO VISIBILITY.

WIZ001-002-006>008-014>016-023>028-231300-
NORTHWEST WISCONSIN

CITY           SKY/WX    TMP DP  RH WIND       PRES   REMARKS
SUPERIOR ARPT  CLOUDY    54  36  50 SW10G16   29.70F
ASHLAND        MOCLDY    52  38  58 VRB7      29.74F
6HR MIN TEMP:  49; 6HR MAX TEMP:  53;

HAYWARD        CLOUDY    48  38  68 S7        29.77F
6HR MIN TEMP:  48; 6HR MAX TEMP:  53; 6HR PCP: TRACE;

SIREN          MOCLDY    52  35  51 S7        29.73F
CUMBERLAND     CLOUDY    43  36  75 S6        29.78S
RICE LAKE      CLOUDY    46  39  78 SE7       29.79F
CHETEK         CLOUDY    45  41  87 SE9       29.79F
LADYSMITH      CLEAR     46  40  81 SE7       29.82F
EAU CLAIRE     NOT AVBL
MENOMONIE      CLOUDY    45  41  86 E5        29.80F
NEW RICHMOND   CLEAR     49  35  60 S8        29.76F
OSCEOLA        CLEAR     50  36  59 S7        29.78F
$$

WIZ003>005-009-010-017-018-231300-
NORTH CENTRAL WISCONSIN

CITY           SKY/WX    TMP DP  RH WIND       PRES   REMARKS
MANITOWISH WTR CLOUDY    42  42 100 S7        29.83F
ARBOR VITAE    CLOUDY    44  40  87 S6        29.84F
WOODRUFF       CLOUDY    44  40  87 S6        29.84F
RHINELANDER    CLOUDY    44  40  85 S8        29.87F
6HR MIN TEMP:  41; 6HR MAX TEMP:  44;

EAGLE RIVER    NOT AVBL
LAND O LAKES   CLOUDY    41  41 100 S3        29.87F
PHILLIPS       CLOUDY    44  40  88 S7        29.82F
TOMAHAWK       CLOUDY    40  39  97 CALM      29.88F
MEDFORD        CLOUDY    41  39  92 SE7       29.86F
MERRILL        CLOUDY    34  34 100 CALM      29.90S
$$

WIZ029-030-035-036-043>047-231300-
CENTRAL WISCONSIN

CITY           SKY/WX    TMP DP  RH WIND       PRES   REMARKS
WAUSAU         CLOUDY    39  39 100 E5        29.88F
6HR MIN TEMP:  35; 6HR MAX TEMP:  43;

MOSINEE        MOCLDY    37  37 100 SE5       29.89F WCI  34
MARSHFIELD     CLOUDY    40  38  93 S3        29.86F
6HR MIN TEMP:  37; 6HR MAX TEMP:  40;

STEVENS POINT  CLOUDY    36  36 100 CALM      29.90F
WAUPACA        FOG       41  40  97 CALM      29.92F VSB 1/4
WAUTOMA        FOG      N/A N/A N/A MISG        N/A  VSB 1/2
WISC RAPIDS    CLOUDY    39  39 100 CALM      29.89F
6HR MIN TEMP:  36; 6HR MAX TEMP:  41;

CAMP DOUGLAS   NOT AVBL
$$

WIZ011>013-019>022-031-037>040-048>050-231300-
NORTHEAST WISCONSIN

CITY           SKY/WX    TMP DP  RH WIND       PRES   REMARKS
ANTIGO         CLOUDY    36  36 100 W3        29.90F
SHAWANO        FOG       41  40  96 CALM      29.92S VSB 1/4
OCONTO         CLOUDY    41  41 100 SE3       29.92F VSB 1/4
STURGEON BAY   FOG       43  43 100 CALM      29.93F VSB 1/4
6HR MIN TEMP:  42; 6HR MAX TEMP:  47;

GREEN BAY      FOG       43  43 100 CALM      29.92F VSB 1/4
6HR MIN TEMP:  43; 6HR MAX TEMP:  46;

MANITOWOC      FOG       43  43 100 CALM      29.92F VSB 3/4
APPLETON       FOG       43  43 100 CALM      29.92S VSB 1/16
CLINTONVILLE   NOT AVBL
OSHKOSH        MOCLDY    41  41 100 CALM      29.90F FOG
6HR MIN TEMP:  40; 6HR MAX TEMP:  46;

$$

WIZ032>034-041-042-053>061-231300-
SOUTHWEST WISCONSIN

CITY           SKY/WX    TMP DP  RH WIND       PRES   REMARKS
LA CROSSE      PTCLDY    48  44  86 S7        29.85F
6HR MIN TEMP:  45; 6HR MAX TEMP:  49;

SPARTA         CLOUDY    38  38 100 CALM      29.88F
VIROQUA        MOCLDY    43  42  98 SE7       29.89F
BOSCOBEL       FOG       41  40  96 CALM      29.91F VSB 1/4
6HR MIN TEMP:  41; 6HR MAX TEMP:  42;

PRAIRIE DU CHI CLOUDY    39  38  97 CALM      29.89F
PLATTEVILLE    CLOUDY    41  41 100 SE7       29.93R
$$

WIZ056-057-062-063-064-067-068-231300-
SOUTH CENTRAL WISCONSIN

CITY           SKY/WX    TMP DP  RH WIND       PRES   REMARKS
REEDSBURG      CLOUDY    38  38 100 CALM      29.89F
BARABOO/DELLS  CLOUDY    40  39  98 CALM      29.89F FOG
LONE ROCK      NOT AVBL
MINERAL POINT    N/A     43  43 100 SE3       29.91S FOG
MADISON        CLOUDY    42  41  96 CALM      29.91F
6HR MIN TEMP:  41; 6HR MAX TEMP:  46;

MIDDLETON      CLOUDY    42  42 100 CALM      29.92F
WATERTOWN      CLOUDY    43  43 100 CALM      29.91F FOG
MONROE         CLOUDY    45  43  93 CALM      29.91F
JANESVILLE     MOCLDY    46  46 100 CALM      29.90F
$$

WIZ051-052-058>065-066-070>072-231300-
SOUTHEAST WISCONSIN

CITY           SKY/WX    TMP DP  RH WIND       PRES   REMARKS
MILWAUKEE      CLOUDY    51  48  89 N7        29.92F
6HR MIN TEMP:  51; 6HR MAX TEMP:  52; 6HR PCP:  0.08;

WAUKESHA       MOCLDY    46  45  93 CALM      29.93F
MILWAUKEE/TIMM CLOUDY    46  45  93 CALM      29.93F
RACINE         LGT RAIN  50  49  96 N7        29.93F
6HR MIN TEMP:  50; 6HR MAX TEMP:  51; 6HR PCP:  0.18;

BURLINGTON     LGT RAIN  48  48 100 CALM      29.92F
KENOSHA        LGT RAIN  50  48  93 N3        29.92F
6HR MIN TEMP:  50; 6HR MAX TEMP:  51; 6HR PCP:  0.17;

FOND DU LAC    MOCLDY    43  40  89 SE3       29.91F FOG
6HR MIN TEMP:  42; 6HR MAX TEMP:  47;

SHEBOYGAN      LGT RAIN  44  44 100 CALM      29.92F FOG
6HR MIN TEMP:  44; 6HR MAX TEMP:  49; 6HR PCP: TRACE;

WEST BEND      FOG       43  43 100 CALM      29.93F VSB 1/4
JUNEAU         FOG       42  42  99 CALM      29.92F VSB<1/4
$$

LSZ147-162-231300-
LAKE SUPERIOR

STATION/POSITION TIME  TEMP    WIND        PRES    WAVE
                       AIR SEA DIR/SP/G            HT/PER
                 (UTC) (F)     (DEG/KT/KT) (MB)    (FT/S)
W MID LAKE BUOY  1050   53 51              1007.5F   3/ 5
DEVILS ISLAND    1100   54     180/ 10/ 13 1006.8F
PORT WING        1020          170/ 12/ 20 1006.8
SAXON HARBOR     1140   54     190/ 10/ 16 1006.8F
$$

LMZ867-665-643>646-231300-
LAKE MICHIGAN

STATION/POSITION TIME  TEMP    WIND        PRES    WAVE
                       AIR SEA DIR/SP/G            HT/PER
                 (UTC) (F)     (DEG/KT/KT) (MB)    (FT/S)
S GREEN BAY BUOY 1130   48 58  210/  2/  2 1013.3F
N MID LAKE BUOY  1050   52 56  250/  4/  6 1014.6R   1/ 6
NORTHPORT PIER   1140   45     190/  4/  5 1013.9R
KEWAUNEE LAKESHO 1130   44     310/  1/  2 1012.9F
SHEBOYGAN LAKESH 1100   49     310/  1/  2 1014.3F
PORT WASHINGTON  1130   50     320/  4/  5 1014.2F
MILWAUKEE LAKESH 1130   50     340/  7/  9   N/A
S MID LAKE BUOY  1050   55 60  360/ 16/ 19 1013.2F   3/ 5
KENOSHA   LAKESH 1100   50     350/  7/  8 1013.5
$$

TC  - TEMPERATURE IN CELSIUS
VSB - VISIBILITY IN STATUTE MILES
WCI - WIND CHILL INDEX
HX  - HEAT INDEX




USA.gov is the U.S. government's official web portal to all federal, state and local government web resources and services.